STARLINK-11319, 61251

Orbit data source: Space-Track

STARLINK-11319, 61251 is a payload satellite owned by SpaceX/Seattle (US) in LEO that was launched on Wed, 25 Sep 2024 UTC via an FALCON 9 launch vehicle from the Air Force Western Test Range (AFWTR). Payload-class satellites include a variety of spacecraft equipped with specific instruments for various scientific and technological missions. These include communications satellites like Starlink; space stations such as the ISS; scientific satellites like the Hubble; Earth observation satellites from companies like Planet Labs, Umbra, and HawkEye 360; GPS; miniature CubeSats for education and research; and military/defense satellites.

Loading next visibility...
Identifier
61251, 2024-175J
Orbit
LEO
Last TLE update
14 hours ago
Origin
Manufacturer
SpaceX/Seattle
Mission
Operational Commercial Communications
Bus & Motor
STARLINK V2M, Unknown motor
Mass
730 kg wet, ~700 kg dry
Launch date (UTC)
2024-09-25 (9 months ago)
Launch vehicle
FALCON 9
Launch site
Air Force Western Test Range (AFWTR)
Object type
Payload
Rocket body
Debris
Shape & HBR
Box + 2 Pan, 29 m
Radar Cross Section
36.964 m², Large (>1 m²)

Expand to show TLE details & history

TLE from 14 hours ago
0 STARLINK-11319
1 61251U 24175J   25181.82236221 -.00000235  00000-0  29051-5 0  9990
2 61251  53.1595 218.1891 0000301  46.9077 313.1966 15.69707848 43801
Epoch: 2025-06-30T19:44Z
TLE epoch observation values (Epoch: 2025-06-30T19:44:12.094Z)
Latitude
-0.00005°
Longitude
3.01202°
Altitude
360.509 km
Speed
7.694 km/s
True Right ascension
14h 32m 45s
True Declination
0° 00' 00"
Sunlit
Object was in full shadow at epoch
Visualization orbit readout
Latitude
33.93183°
Longitude
149.98747°
Altitude
362.099 km
Speed
7.697 km/s
Apparent Right ascension
04h 19m 32s
Apparent Declination
-5° 11' 38"
Sunlit
Object is in daylight
Visualization observer readout
Local Sidereal Time
21:42:20
Azimuth
88.027° E
Elevation
-10.46°
Doppler factor
1
Orbital elements
Apogee altitude
360.196 km
Perigee altitude
359.791 km
Semi-major axis
6,738.131 km
Eccentricity
0.00003
Inclination
53.1595°
RAAN
218.1891°
Arg. of periapsis
46.9077°
True anomaly
Unknown
Mean anomaly
313.1966°
Eccentric anomaly
Unknown
Mean motion
3.92405 °/min
Orbital period
91.74 mins
BSTAR
0.0000029051
Loading maneuver chart data...
Loading SW <> Apogee altitude chart data...
Loading historical data...
Loading historical data...
Loading historical data...
Loading historical data...
Loading historical data...
Loading historical data...
Loading historical data...

STARLINK-11319 Visibility forecast

Observer location: undefined°, undefined°

Span
Click to sort rows by Start time (UTC) header in descending order
Start Az.
Max El. time (UTC)
Max El. Az.
Max El.
End time (UTC)
End Az.
4 mins2025-07-01 11:29:56.827Z331.01° NNW2025-07-01 11:31:56.827Z33.715° NE31.123°2025-07-01 11:33:56.827Z97.742° ESE
4 mins2025-07-02 05:34:56.827Z276.453° WNW2025-07-02 05:35:56.827Z310.524° NW28.699°2025-07-02 05:38:56.827Z34.045° NE
|